Terug naar catalogus

STARLINK-5040

ActiefCommunicatieVLEO
NORAD 53914·PAYLOAD·🇺🇸 United States

Gelanceerd Sep 24, 2022 vanaf Cape Canaveral Space Force Station

Loading…

Volgende Passages (komende 24 uur)

TLE

VersSource: CelesTrak SupGP

Epoch: Sep 14, 2026, 21:56 UTC

1 53914C 22119AE  26257.91437500  .00185720  00000+0  93196-2 0  2577
2 53914  53.1607 183.6215 0001590  93.6882  36.4995 15.16710789    15

Volg STARLINK-5040 in realtime met AllMySat

Download on the App Store